#timestamp,LO_Frequency,Hit,StdDev 
1666454415.7,286047000.7,N
1666454435.5,286047002.8,N
1666454455.3,286047002.7,N
1666454475.2,286047002.7,N
1666454495.0,286047000.0,N
1666454495.9,286047000.0,N
1666454515.8,286046998.8,N
1666454535.6,286046999.6,N
1666454555.4,286046999.4,N
1666454575.3,286046998.9,N
1666454595.1,286046999.5,N
1666454615.9,286046999.3,N
1666454635.7,286046998.2,N
1666454655.5,286047000.6,N
1666454675.4,286047002.7,N
1666454695.2,286047002.0,N
1666454715.0,286046998.3,N
1666454716.0,286046998.3,N
1666454735.8,286046998.7,N
1666454755.6,286047000.6,N
1666454775.5,286047000.2,N
1666454795.3,286047002.5,N
1666454815.1,286047002.6,N
1666454835.9,286047001.7,N
1666454855.7,286047002.1,N
1666454875.6,286047000.4,N
1666454895.4,286046998.6,N
1666454915.2,286047000.3,N
1666454935.1,286046999.9,N
1666454936.0,286046999.9,N
1666454955.8,286046998.6,N
1666454975.6,286047000.3,N
1666454995.5,286047000.6,N
1666455015.3,286046999.9,N
1666455035.2,286047001.0,N
1666455055.9,286047001.2,N
1666455075.7,286047000.3,N
1666455095.6,286047002.8,N
1666455115.4,286047001.4,N
1666455135.2,286047001.0,N
1666455155.1,286046999.7,N
1666455156.0,286046999.7,N
1666455175.8,286047000.4,N
1666455195.7,286047002.1,N
1666455215.5,286047004.0,Y
1666455235.3,286047003.9,P
1666455255.2,286047004.1,N
1666455275.0,286047003.6,N
1666455275.9,286047003.6,N
1666455295.8,286047005.7,Y
1666455315.6,286047000.4,P
1666455335.4,286047000.6,N
1666455355.3,286047001.1,N
1666455375.1,286047000.4,N
1666455395.8,286046999.8,N
1666455415.7,286047000.5,N
1666455435.5,286047000.2,N
1666455455.4,286046999.9,N
1666455475.2,286046998.2,N
1666455495.0,286046998.5,N
1666455495.9,286046998.5,N
1666455515.8,286046998.7,N
1666455535.6,286046999.1,N
1666455555.4,286046998.4,N
1666455575.3,286046998.3,N
1666455595.1,286046999.6,N
1666455615.9,286046998.9,N
1666455635.7,286046996.7,N
1666455655.5,286046996.5,N
1666455675.4,286046999.4,N
1666455695.2,286046999.5,N
1666455715.1,286046996.8,N
1666455716.0,286046996.8,N
1666455735.8,286046997.9,N
1666455755.6,286046995.6,N
1666455775.5,286046995.8,N
1666455795.8,286046995.9,N
1666455815.6,286046996.3,N
1666455835.4,286046994.9,N
1666455855.3,286046996.5,N
1666455875.1,286046999.1,N
1666455895.8,286046998.5,N
1666455915.7,286046998.2,N
1666455935.5,286046999.8,N
1666455955.4,286047002.4,N
1666455975.2,286047002.3,N
1666455995.0,286046998.1,N
1666455995.9,286046998.1,N
1666456015.8,286046998.7,N
1666456035.6,286046999.1,N
1666456055.4,286046999.1,N
1666456075.3,286046998.1,N
1666456095.1,286046998.4,N
1666456115.9,286046996.6,N
1666456135.7,286046998.5,N
1666456155.5,286046998.9,N
1666456175.4,286046996.5,N
1666456195.2,286046997.4,N
1666456215.0,286046996.5,N
1666456215.9,286046996.5,N
1666456235.8,286046999.4,N
1666456255.6,286046999.2,N
1666456275.5,286047000.0,N
1666456295.3,286046999.3,N
1666456315.1,286046997.6,N
1666456335.9,286046996.5,N
1666456355.7,286046998.1,N
1666456375.5,286047001.1,N
1666456395.4,286046998.7,N
1666456415.2,286046996.9,N
1666456435.1,286046997.2,N
1666456436.0,286046997.2,N
1666456455.8,286046999.2,N
1666456475.6,286046999.0,N
1666456495.5,286046998.2,N
1666456515.3,286046998.4,N
1666456535.2,286047000.8,N
1666456555.9,286046999.9,N
1666456575.7,286047000.4,N
1666456595.6,286047002.6,N
1666456615.4,286047001.1,N
1666456635.2,286046997.4,N
1666456655.1,286046999.2,N
1666456656.0,286046999.2,N
1666456675.8,286046998.9,N
1666456695.7,286046998.8,N
1666456715.5,286046997.9,N
1666456735.3,286046997.8,N
1666456755.2,286046997.9,N
1666456775.0,286046996.6,N
1666456775.9,286046996.6,N
1666456795.8,286046997.1,N
1666456815.6,286046995.2,Y
1666456835.4,286046997.7,P
1666456855.3,286046999.4,N
1666456875.1,286046999.4,N
1666456895.9,286046998.3,N
1666456915.7,286046998.9,N
1666456935.5,286047001.1,N
1666456955.4,286047000.6,N
1666456975.2,286047001.0,N
1666456995.0,286047000.8,N
1666456996.0,286047000.8,N
1666457015.8,286046998.4,N
1666457035.6,286047000.9,N
1666457055.5,286047000.5,N
1666457075.3,286046999.8,N
1666457095.1,286046998.1,N
1666457115.9,286047000.9,N
1666457135.7,286047001.2,N
1666457155.6,286046998.9,N
1666457175.4,286046999.2,N
1666457195.2,286047001.2,N
1666457215.1,286047000.9,N
1666457216.0,286047000.9,N
1666457235.8,286047000.0,N
1666457255.7,286047002.7,N
1666457275.5,286046999.7,N
1666457295.3,286047000.8,N
1666457315.2,286046999.2,N
1666457335.9,286046997.8,N
1666457355.7,286046997.9,N
1666457375.6,286046997.3,N
1666457395.4,286046996.8,N
1666457415.3,286046998.7,N
1666457435.1,286046999.8,N
1666457436.0,286046999.8,N
1666457455.8,286047000.7,N
1666457475.7,286047002.6,N
1666457495.5,286047004.2,N
1666457515.4,286047001.9,N
1666457535.2,286047001.5,N
1666457555.0,286047004.1,N
1666457555.9,286047004.1,N
1666457575.8,286047003.6,N
1666457595.6,286047003.5,N
1666457615.4,286047002.1,N
1666457635.3,286046999.8,N
1666457655.1,286046999.8,N
1666457675.9,286047002.2,N
1666457695.7,286047002.2,N
1666457715.5,286047002.5,N
1666457735.4,286047002.5,N
1666457755.2,286047001.3,N
1666457775.0,286047003.2,N
1666457776.0,286047003.2,N
1666457795.8,286047003.6,N
1666457815.6,286047003.9,N
1666457835.5,286047003.6,N
1666457855.3,286047001.7,N
1666457875.1,286047001.3,N
1666457895.9,286047003.2,N
1666457915.7,286047005.2,N
1666457935.6,286047003.0,N
1666457955.4,286047006.0,Y
1666457975.2,286047001.8,P
1666457995.1,286047003.5,P
1666457996.0,286047003.5,P
